Wind_Speed
11 12 12 11 10 10 11 11 13 14 16 18 20 22 24 26 28 27 27 26 26 27 28 28 28 29 29 28 28 28 28 28
11 12 10 12 12 12 12 13 15 16 18 21 24 26 27 27 27 26 26 26 27 28 27 27 27 28 30 30 30 30 31 31
10 10 11 13 12 14 15 16 16 17 20 23 25 26 28 29 29 28 28 28 31 31 30 31 32 32 31 33 34 32 30 29
7 9 10 13 14 15 18 20 19 19 20 25 24 27 30 29 29 30 29 32 35 34 34 33 33 35 35 34 33 32 30 27
8 9 11 13 15 18 20 22 25 22 24 26 26 24 28 30 30 33 35 38 37 37 34 33 32 31 31 29 30 28 28 28
7 11 15 18 19 21 22 23 29 28 25 31 26 26 28 29 34 38 38 36 36 35 32 30 29 28 28 27 30 31 29 30
11 16 19 21 21 23 23 23 22 25 30 29 28 29 32 32 38 40 40 36 33 32 30 30 28 28 29 29 30 31 32 34
17 20 24 24 24 20 20 14 17 23 29 30 32 33 34 38 42 42 40 36 35 34 32 32 32 32 32 34 35 35 36 38
20 24 26 22 21 20 18 21 20 28 33 34 34 37 40 44 43 39 38 37 37 36 36 34 36 38 39 40 41 43 45 45
25 24 24 24 24 30 18 30 31 35 35 36 41 42 44 44 42 39 38 38 38 37 39 42 45 48 49 51 52 52 53 54
22 23 20 32 22 27 36 39 41 38 40 44 46 47 47 45 42 40 39 39 42 44 49 52 53 54 57 58 60 61 62 62
20 18 31 29 33 40 44 46 47 48 50 50 50 51 49 46 43 40 42 46 50 53 57 59 62 65 67 68 69 70 71 72
18 21 36 37 39 45 46 46 53 53 53 52 51 50 46 43 44 49 53 56 60 63 65 69 71 73 75 76 77 78 78 78
28 34 39 45 47 50 52 53 53 55 54 52 50 46 45 48 53 58 62 66 69 72 74 77 79 81 82 83 84 82 80 80
33 36 39 45 49 50 53 55 56 54 51 48 46 49 55 59 63 66 69 72 74 76 78 80 82 83 85 87 88 90 91 88
37 40 44 48 50 53 55 54 50 49 47 49 53 56 58 61 65 68 71 75 77 80 82 84 85 88 89 91 91 93 94 94
42 43 46 45 50 52 49 46 46 47 50 53 55 58 62 66 69 73 75 79 81 85 87 90 92 93 95 95 95 95 96 97
47 37 49 47 46 48 47 44 45 48 51 55 59 64 67 70 74 77 81 85 90 92 93 95 96 96 96 97 97 94 89 85
51 45 48 45 45 44 44 46 49 52 56 60 64 67 71 76 81 84 87 90 93 94 97 99 100 99 98 91 79 70 66 66
49 48 46 43 41 44 47 50 52 56 60 64 68 74 79 82 86 90 92 93 96 100 102 103 103 95 82 67 59 64 67 64
Wind_Direction
226 199 197 209 228 238 252 266 279 284 287 289 293 295 298 298 298 299 299 300 303 303 300 298 297 296 292 291 291 290 292 293
197 199 214 231 244 259 274 281 279 279 289 294 296 298 300 301 299 300 301 304 305 302 302 301 299 296 293 290 288 288 288 289
196 217 234 250 266 274 278 276 279 289 296 301 302 302 301 303 303 303 302 303 304 302 301 299 297 293 291 289 286 284 284 285
233 251 268 274 281 286 285 288 286 292 299 301 303 311 309 310 308 307 299 301 303 298 297 295 295 295 296 295 292 290 288 283
259 264 268 276 281 282 283 285 281 283 304 298 296 306 308 306 304 304 298 297 298 296 294 292 292 290 290 291 290 291 292 289
270 275 274 278 281 278 274 287 282 274 301 305 300 297 304 297 300 303 300 298 296 294 293 292 290 292 293 294 293 291 291 289
270 272 275 279 281 279 271 291 287 283 308 305 301 299 294 293 300 301 300 300 299 294 293 293 295 295 294 294 291 290 290 288
279 274 274 273 281 272 274 271 294 296 300 303 303 301 299 301 304 301 297 296 294 291 292 292 292 295 297 297 296 293 290 287
277 280 283 289 284 263 256 250 287 305 306 308 306 303 300 302 298 296 294 293 292 293 296 298 299 299 297 296 295 293 290 287
276 282 290 279 286 265 246 314 322 315 311 307 307 304 304 303 301 297 295 293 294 296 300 302 301 299 297 296 293 291 288 286
292 284 278 262 265 281 317 319 316 314 308 310 305 306 305 302 298 297 294 295 298 298 298 298 298 297 296 294 293 290 288 286
290 289 286 282 308 314 316 318 317 313 310 309 309 307 306 305 302 300 299 299 300 300 300 300 299 298 297 296 294 292 291 290
299 272 292 307 311 315 316 314 313 311 309 307 307 306 305 303 304 304 304 304 305 304 302 301 299 298 297 296 295 293 292 290
294 300 302 308 314 315 314 308 306 307 308 308 308 307 305 305 306 308 308 307 305 304 303 303 303 302 300 297 294 292 289 287
297 301 300 296 297 299 304 306 306 306 306 306 306 308 311 311 309 307 305 304 303 303 303 302 302 301 300 299 296 294 291 290
292 289 288 293 300 302 307 307 305 305 305 306 306 306 303 301 301 302 305 306 306 306 305 304 302 301 298 297 295 293 291 287
286 291 296 298 300 303 302 300 301 302 302 301 299 299 302 305 307 308 307 307 307 307 306 306 304 302 301 299 297 295 292 289
286 290 305 300 300 296 297 297 296 296 296 298 302 305 307 309 310 309 309 309 310 309 308 306 304 302 300 298 295 292 289 285
300 299 299 299 296 292 290 292 296 299 301 303 304 308 310 310 311 312 311 311 311 310 308 306 305 303 301 298 296 293 292 295
295 294 296 294 288 289 294 297 298 300 302 305 309 311 311 311 312 312 311 311 311 310 309 308 307 303 302 300 293 295 298 300
Height
5830 5832 5833 5833 5834 5834 5834 5834 5834 5834 5832 5831 5829 5827 5825 5823 5821 5819 5817 5814 5812 5810 5808 5806 5804 5803 5802 5800 5799 5798 5797 5796
5829 5831 5832 5834 5833 5833 5833 5832 5831 5830 5830 5828 5826 5824 5822 5820 5817 5815 5812 5810 5809 5806 5803 5801 5800 5798 5797 5794 5793 5793 5791 5789
5828 5830 5831 5832 5831 5831 5830 5829 5828 5828 5826 5824 5822 5819 5818 5815 5813 5810 5808 5806 5804 5800 5797 5795 5793 5791 5790 5788 5787 5786 5784 5783
5828 5830 5831 5830 5830 5829 5828 5826 5825 5823 5822 5820 5818 5817 5815 5811 5808 5806 5803 5801 5797 5794 5792 5789 5787 5785 5783 5781 5780 5779 5777 5776
5828 5828 5828 5827 5827 5826 5825 5823 5820 5819 5818 5816 5815 5813 5810 5807 5804 5801 5798 5794 5790 5788 5785 5783 5780 5778 5776 5774 5773 5771 5769 5769
5824 5824 5824 5824 5823 5823 5821 5818 5817 5816 5815 5813 5810 5807 5804 5802 5798 5795 5791 5787 5784 5782 5778 5776 5774 5772 5771 5768 5766 5764 5762 5762
5822 5822 5820 5819 5818 5817 5814 5813 5811 5811 5810 5807 5804 5802 5798 5795 5792 5787 5783 5780 5778 5776 5773 5770 5767 5765 5764 5761 5759 5758 5756 5754
5818 5817 5815 5815 5813 5810 5810 5808 5808 5807 5804 5801 5797 5793 5790 5787 5784 5780 5776 5772 5770 5768 5765 5762 5760 5758 5756 5754 5752 5750 5748 5746
5815 5814 5813 5812 5808 5805 5802 5799 5799 5799 5796 5792 5788 5786 5783 5780 5776 5772 5768 5764 5762 5759 5757 5754 5752 5749 5746 5744 5742 5739 5737 5735
5813 5811 5808 5803 5800 5796 5793 5790 5790 5790 5787 5784 5781 5777 5773 5769 5766 5762 5758 5755 5752 5749 5746 5743 5740 5737 5735 5732 5728 5725 5723 5721
5807 5805 5802 5797 5793 5784 5784 5783 5782 5781 5778 5774 5772 5768 5763 5760 5756 5752 5749 5746 5742 5739 5735 5731 5727 5724 5721 5717 5714 5710 5706 5703
5801 5799 5791 5787 5779 5780 5780 5777 5772 5770 5767 5764 5759 5756 5752 5748 5745 5743 5740 5736 5731 5726 5722 5717 5713 5710 5706 5702 5697 5692 5686 5681
5795 5792 5779 5776 5778 5776 5773 5770 5764 5760 5758 5754 5750 5746 5742 5739 5735 5731 5727 5722 5717 5712 5708 5703 5696 5691 5686 5680 5673 5668 5663 5658
5790 5786 5781 5774 5769 5765 5764 5762 5757 5753 5747 5743 5739 5736 5733 5729 5723 5717 5711 5706 5700 5693 5686 5679 5672 5664 5659 5653 5649 5647 5641 5634
5783 5781 5777 5774 5771 5766 5760 5753 5747 5742 5737 5734 5730 5725 5719 5713 5708 5702 5696 5690 5683 5676 5667 5659 5651 5643 5635 5627 5620 5617 5610 5607
5779 5775 5772 5767 5761 5756 5750 5744 5738 5734 5729 5725 5720 5715 5711 5706 5699 5692 5683 5674 5665 5657 5649 5640 5632 5624 5615 5607 5598 5589 5582 5580
5770 5767 5765 5759 5754 5749 5743 5737 5731 5726 5722 5717 5712 5706 5699 5692 5684 5676 5666 5657 5648 5638 5627 5616 5606 5596 5586 5577 5569 5559 5548 5537
5762 5759 5756 5750 5744 5739 5734 5729 5725 5720 5713 5706 5699 5692 5685 5677 5668 5658 5647 5636 5625 5614 5603 5591 5581 5569 5558 5547 5536 5527 5519 5508
5752 5748 5743 5738 5734 5730 5725 5720 5714 5708 5701 5694 5687 5679 5670 5659 5648 5637 5626 5614 5601 5589 5577 5563 5551 5538 5526 5515 5504 5497 5491 5487
5742 5738 5734 5731 5726 5722 5717 5710 5704 5697 5689 5681 5673 5663 5652 5641 5629 5616 5603 5590 5576 5562 5547 5532 5521 5507 5497 5489 5484 5479 5473 5466